TimeCDT,TemperatureF,Dew PointF,Humidity,Sea Level PressureIn,VisibilityMPH,Wind Direction,Wind SpeedMPH,Gust SpeedMPH,PrecipitationIn,Events,Conditions,WindDirDegrees,DateUTC
12:52 AM,78.1,73.9,87,29.93,10.0,SE,8.1,-,N/A,,Clear,140,2013-06-19 05:52:00
1:52 AM,77.0,73.9,90,29.92,10.0,SSE,6.9,-,N/A,,Scattered Clouds,150,2013-06-19 06:52:00
2:52 AM,78.1,75.0,90,29.91,10.0,SSE,10.4,-,N/A,,Partly Cloudy,160,2013-06-19 07:52:00
3:52 AM,79.0,73.9,84,29.90,10.0,SSE,10.4,-,N/A,,Clear,160,2013-06-19 08:52:00
4:52 AM,77.0,73.9,90,29.90,10.0,SSE,5.8,-,N/A,,Clear,160,2013-06-19 09:52:00
5:52 AM,75.9,73.9,94,29.91,10.0,SE,5.8,-,N/A,,Clear,140,2013-06-19 10:52:00
6:52 AM,73.9,72.0,93,29.91,10.0,ESE,4.6,-,N/A,,Clear,120,2013-06-19 11:52:00
7:52 AM,79.0,75.0,88,29.93,10.0,SE,4.6,-,N/A,,Clear,130,2013-06-19 12:52:00
8:52 AM,82.9,75.0,77,29.94,10.0,South,12.7,-,N/A,,Partly Cloudy,170,2013-06-19 13:52:00
9:52 AM,87.1,72.0,61,29.94,10.0,South,13.8,21.9,N/A,,Scattered Clouds,170,2013-06-19 14:52:00
10:52 AM,91.0,71.1,52,29.94,10.0,South,16.1,23.0,N/A,,Clear,170,2013-06-19 15:52:00
11:52 AM,93.9,70.0,46,29.93,10.0,SSE,16.1,26.5,N/A,,Partly Cloudy,150,2013-06-19 16:52:00
12:52 PM,96.1,69.1,41,29.92,10.0,SSE,18.4,23.0,N/A,,Clear,150,2013-06-19 17:52:00
1:52 PM,96.1,68.0,40,29.90,10.0,SSE,18.4,26.5,N/A,,Mostly Cloudy,150,2013-06-19 18:52:00
2:52 PM,96.1,68.0,40,29.89,10.0,SSE,15.0,24.2,N/A,,Partly Cloudy,160,2013-06-19 19:52:00
3:52 PM,96.1,68.0,40,29.89,10.0,SE,17.3,26.5,N/A,,Clear,140,2013-06-19 20:52:00
4:52 PM,95.0,68.0,41,29.89,10.0,SE,13.8,-,N/A,,Partly Cloudy,140,2013-06-19 21:52:00
5:52 PM,93.0,66.9,42,29.89,10.0,SE,19.6,25.3,N/A,,Clear,140,2013-06-19 22:52:00
6:52 PM,90.0,66.9,46,29.90,10.0,SE,20.7,-,N/A,,Clear,130,2013-06-19 23:52:00
7:52 PM,86.0,70.0,59,29.92,10.0,SE,17.3,24.2,N/A,,Clear,130,2013-06-20 00:52:00
8:52 PM,82.9,72.0,69,29.94,10.0,SE,11.5,-,N/A,,Clear,130,2013-06-20 01:52:00
9:52 PM,82.0,73.0,74,29.96,10.0,SE,10.4,-,N/A,,Clear,130,2013-06-20 02:52:00
10:52 PM,81.0,75.0,82,29.97,10.0,SE,10.4,-,N/A,,Scattered Clouds,130,2013-06-20 03:52:00
11:52 PM,80.1,73.0,79,29.98,10.0,SSE,8.1,-,N/A,,Clear,150,2013-06-20 04:52:00